Погода в Смольной Вершине

Россия / Тамбовская область     52°57′05″N   41°49′22″E
темп.,
°C
ветер,
м/с
пор.,
м/с
влажн.,
%
обл.,
%
осадки,
мм/ч
давл.,
гПа
погр.,
м
23 апреля, пт
пт2300:00+10ю2661100 0.0 1021100
03:00+9ю3769100 0.0 1021157
06:00+9ююв288296 0.0 1021215
09:00+14ю466011 0.0 1021678
12:00+16ю4643100 0.6 10192202
15:00+15ю365046 0.8 10181450
18:00+13ю376696 1.1 1017288
21:00+10ю398462 1.8 1016252
24 апреля, сб
сб2400:00+8ююв4109043 0.3 1014278
03:00+7ююв410945 0.3 1012263
06:00+7ююв41091100 0.0 1011278
09:00+10ю4979100 0.7 1009663
12:00+11ю71175100 0.8 10071381
15:00+5з4990100 2.0 1009787
18:00+7з5970100 0.9 10091194
21:00+5зюз410748 1.2 1010465
25 апреля, вс
вс2500:00+2юз512765 0.0 1010679
03:00+2зюз71596100 1.1 10101021
06:00+2з71596100 0.8 1012991
09:00+5з6117239 1.6 10141208
12:00+8зюз71049100 0.1 10152390
15:00+10з61242100 0.4 10153219
18:00+8юз48525 0.3 1015839
21:00+6юз41158100 0.3 1015505
26 апреля, пн
пн2600:00+4юз51095100 2.3 1015963
03:00+4юз389166 2.9 1015528
06:00+2юз2695100 0.0 1016273
09:00+6юз2467100 0.0 1016855
12:00+8юз3456100 0.0 10151458
15:00+7ююз2368100 0.1 1014977
18:00+6ю2284100 0.2 1013559
21:00+5ююв1294100 0.3 101254
27 апреля, вт
вт2700:00+4зсз3397100 1.8 1010608
03:00+3зсз3797100 8.9 1010414
06:00+3ююз139582 0.1 1009148
09:00+6юз467335 0.7 10081002
12:00+8зюз6857100 1.6 10082022
15:00+7з61065100 3.4 10091761
18:00+6зюз596399 1.0 10091008
21:00+3зюз4117766 1.0 1011355